Wetbulb
43.98 44.28 44.38 44.48 44.41 43.86 43.30 43.23 43.71 43.35 42.78 42.17 41.77 41.48 41.36 41.44 40.91 40.24 39.89 39.85 40.00 39.71 39.32 39.05 38.77 38.23 37.43 36.59 36.38 36.22 35.89 35.45 35.62 36.58 37.10 35.88 34.75 33.85 33.19 32.79 32.50 32.67 33.02 33.43 33.04 33.02 33.06 32.64 33.32 33.84 34.58 35.73 35.76 35.35 34.93 34.78 34.65 34.65 34.71 34.98 35.33 35.44 35.53 35.54 36.01 35.94 35.68 35.54 35.50
43.45 43.88 44.46 45.07 44.70 43.81 43.10 43.03 43.04 42.67 42.09 41.64 41.76 41.64 41.48 41.40 40.70 40.04 39.61 39.66 39.58 39.37 38.93 38.48 38.29 37.64 36.90 36.46 36.38 36.14 35.77 35.41 35.10 35.28 35.27 34.43 33.43 32.77 32.39 32.53 32.16 32.52 33.01 33.12 33.00 33.32 33.47 32.99 33.34 34.03 34.72 35.24 35.17 34.95 34.72 34.94 34.47 34.53 34.84 35.07 35.14 35.15 35.03 35.17 35.55 35.70 35.56 35.31 35.29
43.12 43.52 43.90 44.18 43.75 43.28 42.90 42.42 41.97 41.55 41.18 41.05 40.96 40.88 40.89 40.82 40.34 39.84 39.22 38.91 38.69 38.48 38.28 38.10 38.07 37.41 36.44 35.56 35.14 34.90 34.81 34.75 34.37 34.26 34.29 34.02 33.13 32.53 32.41 32.42 31.91 32.35 33.06 33.44 33.17 33.26 33.31 32.89 33.60 34.77 35.59 35.61 35.09 35.02 34.89 34.49 34.41 34.59 35.00 35.19 35.02 34.91 34.83 35.06 35.58 35.65 35.47 35.21 35.13
42.71 42.87 43.10 43.26 43.35 43.35 43.12 42.45 41.60 41.02 40.64 40.30 39.96 39.97 39.95 39.72 39.40 38.94 38.39 37.86 37.74 37.94 38.08 37.94 38.08 37.48 36.60 35.71 34.54 33.94 34.07 35.13 34.50 34.25 34.03 33.85 33.15 32.64 32.15 31.90 32.05 32.33 32.52 32.40 32.42 32.49 32.42 32.03 32.96 34.15 35.08 35.09 34.97 34.89 34.86 34.91 34.59 34.61 34.74 34.79 34.75 34.79 34.85 35.00 35.27 35.29 35.10 35.13 35.19
41.96 42.42 42.80 43.14 43.34 43.38 43.31 42.60 41.60 40.78 40.15 39.51 39.19 38.91 38.63 38.49 38.29 38.00 37.81 37.92 37.89 37.76 37.67 37.48 37.33 37.00 36.37 35.43 34.14 33.39 33.30 34.33 36.25 35.64 34.11 33.67 33.11 32.45 32.03 31.73 32.50 32.96 32.93 32.28 32.25 32.12 31.96 31.49 32.65 33.60 34.20 34.43 34.39 34.81 35.05 34.92 34.44 34.20 34.06 34.03 34.40 34.63 34.70 34.71 34.79 34.89 34.92 35.07 35.16
41.63 41.85 42.21 42.61 42.84 42.76 42.56 42.05 41.20 40.42 39.76 39.24 38.76 38.27 37.87 37.54 37.51 37.54 37.68 37.61 37.57 37.26 37.07 37.57 37.74 37.24 36.07 34.05 33.34 32.90 32.71 32.73 34.70 34.34 33.32 33.09 33.01 32.53 32.08 32.16 32.44 32.72 32.72 32.27 31.93 31.71 31.54 31.51 32.74 33.60 34.03 34.10 34.57 34.76 34.61 33.71 33.58 33.63 33.72 33.90 34.31 34.31 34.26 34.26 34.51 34.75 34.82 34.88 34.85
41.43 41.39 41.47 41.81 42.09 41.89 41.36 40.70 40.05 39.57 39.05 38.71 38.36 37.92 37.52 37.33 37.30 37.43 37.38 37.19 36.76 36.84 37.43 38.53 37.81 36.72 35.23 33.38 33.05 32.92 32.91 32.91 32.79 32.52 32.52 33.20 33.16 33.06 33.01 33.11 32.60 32.44 32.35 32.17 31.84 31.67 31.69 31.71 32.89 33.79 34.65 35.68 35.51 34.88 34.06 33.23 33.00 33.11 33.45 33.79 34.19 34.25 34.30 34.49 34.66 34.65 34.63 34.47 34.33
41.17 41.09 41.22 41.30 41.23 40.86 40.21 39.48 38.88 38.49 38.20 38.19 37.88 37.56 37.19 37.04 36.92 36.89 36.79 36.64 36.41 36.73 37.16 37.17 35.75 34.73 34.08 33.37 33.58 33.44 33.20 33.07 32.96 32.66 32.57 32.92 32.70 32.65 32.67 32.76 32.56 32.35 32.25 32.34 32.15 31.98 31.96 32.34 33.37 34.02 34.28 34.51 34.44 34.30 33.79 32.47 32.37 32.61 32.97 33.39 33.71 33.97 34.30 34.68 34.78 34.48 34.16 33.91 33.86
40.59 40.58 40.50 40.47 40.24 39.80 39.07 38.44 38.14 38.01 37.84 37.70 37.39 37.03 36.81 36.68 36.47 36.30 36.21 36.20 36.48 36.53 36.18 35.21 33.97 33.25 33.09 33.21 33.39 33.31 33.37 33.43 33.36 32.91 32.53 32.60 32.67 32.81 32.85 32.89 32.98 32.86 32.71 32.41 32.24 31.96 31.80 32.31 33.12 33.62 33.96 33.97 33.88 33.88 33.53 32.22 32.10 32.26 32.64 33.04 33.37 33.62 33.83 33.95 33.89 33.63 33.32 33.17 33.25
39.89 39.59 39.31 39.12 38.77 38.26 37.79 37.24 37.40 37.44 37.26 37.00 36.66 36.69 37.12 37.62 36.75 36.16 35.97 36.29 36.32 35.56 34.60 33.76 32.86 32.49 32.47 32.67 32.97 33.14 33.27 33.43 33.36 32.92 32.72 33.14 33.42 33.22 32.96 33.17 32.96 33.09 33.01 32.48 32.37 32.03 31.74 32.21 32.97 33.40 33.47 33.25 33.18 33.00 32.67 31.93 31.89 32.18 32.55 32.78 33.12 33.18 33.18 33.23 33.06 32.76 32.60 32.66 32.79
39.27 38.91 38.57 38.11 37.56 37.14 36.84 36.32 36.63 36.89 36.82 36.37 36.14 36.61 37.17 37.50 36.21 35.78 35.76 35.83 35.03 34.20 33.56 33.06 32.50 32.53 32.71 32.88 32.95 33.05 33.18 33.09 33.07 32.86 32.70 32.97 33.30 32.92 32.41 32.48 32.36 32.43 32.49 32.30 31.91 31.83 32.05 32.37 32.90 32.91 32.77 32.52 32.46 32.34 32.16 31.75 31.58 31.78 32.15 32.16 32.31 32.35 32.25 32.53 32.69 32.61 32.42 32.49 32.47
38.73 38.18 37.67 37.04 36.46 36.24 36.14 35.93 36.18 36.27 36.25 35.97 35.98 36.12 36.05 35.67 35.21 35.17 35.13 34.37 34.01 33.65 33.12 32.42 32.27 32.59 33.02 32.98 32.88 33.34 33.51 32.39 32.29 32.39 32.47 32.41 32.11 31.80 31.68 31.66 31.66 31.55 31.51 31.35 31.09 31.45 31.97 32.30 32.30 32.22 32.18 32.18 32.56 32.68 32.43 31.80 31.57 31.55 31.78 31.79 31.74 31.84 32.01 32.54 32.69 32.75 32.70 32.49 32.40
37.99 37.27 36.56 35.84 35.38 35.35 35.61 35.61 35.56 35.61 35.63 35.55 35.54 35.39 35.05 34.54 34.62 34.49 34.29 33.50 33.95 33.65 32.92 32.18 32.29 32.44 32.63 32.78 32.64 32.77 32.75 31.99 31.75 32.10 32.35 32.03 31.67 31.31 31.15 31.17 31.06 31.01 30.94 30.84 30.74 31.00 31.47 31.85 31.64 31.70 31.80 32.04 32.52 32.55 32.34 31.77 31.61 31.65 31.76 31.85 31.82 31.75 31.93 32.40 32.70 32.82 32.56 32.15 32.20
37.09 36.33 35.58 34.94 34.71 34.95 35.13 35.13 35.15 35.08 35.10 35.05 34.86 34.54 34.15 33.62 34.11 34.05 33.75 33.37 33.70 33.19 32.60 32.21 32.70 32.90 32.91 32.72 32.47 32.19 31.90 31.57 31.27 31.22 31.33 31.50 31.18 30.84 30.71 31.01 30.75 30.73 30.85 30.94 30.57 30.51 30.83 31.35 31.39 31.51 31.60 31.70 31.91 32.07 31.97 31.78 31.59 31.67 31.83 31.76 31.87 32.05 32.21 32.41 32.74 32.76 32.60 32.23 32.25
36.15 35.44 34.81 34.25 34.34 34.62 34.79 34.72 34.86 34.88 34.73 34.51 34.15 33.81 33.45 33.28 34.08 33.94 33.41 33.01 33.00 32.67 32.24 32.07 32.95 33.42 33.29 32.16 31.74 31.38 31.06 30.91 30.73 30.76 30.97 31.12 30.63 30.39 30.45 30.83 30.72 30.81 30.92 30.81 30.31 30.26 30.51 30.82 30.97 31.03 31.06 31.32 31.70 31.80 31.78 31.67 31.71 31.69 31.68 31.75 31.88 31.97 32.24 32.50 32.64 32.64 32.61 32.30 32.21
35.34 34.64 34.18 33.95 34.17 34.39 34.58 34.57 34.74 34.71 34.49 34.14 33.61 33.22 33.11 33.34 33.96 33.80 33.22 32.61 32.47 32.18 32.03 32.13 32.50 32.52 32.46 32.21 31.45 30.86 30.43 30.27 30.29 30.52 30.69 30.88 30.69 30.56 30.64 30.80 31.05 31.22 31.17 30.74 30.33 30.25 30.30 30.34 30.48 30.60 30.85 31.33 31.72 31.88 31.85 31.78 31.79 31.73 31.64 31.64 31.88 31.95 32.25 32.63 32.78 32.83 32.67 32.60 32.40
34.68 34.06 33.79 33.85 34.03 34.25 34.28 34.36 34.51 34.43 34.16 33.70 33.12 32.86 32.93 33.12 33.44 33.99 34.10 33.27 32.76 32.38 32.09 31.98 31.93 31.63 31.76 32.55 31.93 31.22 30.46 30.24 30.32 30.63 31.00 31.29 31.22 31.16 31.22 31.25 31.58 31.58 31.24 30.73 30.45 30.39 30.48 30.27 30.23 30.38 30.65 31.07 31.37 31.47 31.46 31.43 31.59 31.71 31.84 31.91 32.04 32.15 32.37 32.80 33.05 33.11 32.88 32.80 32.74
34.30 33.83 33.68 33.85 34.01 34.06 33.98 33.99 34.14 34.17 33.86 33.42 32.92 32.75 32.70 32.77 33.12 34.00 34.58 34.12 33.06 32.57 32.21 31.51 31.06 31.02 31.15 31.44 31.36 31.35 31.32 30.89 30.84 30.97 31.25 31.36 31.32 31.26 31.23 31.22 31.63 31.43 30.89 30.42 30.34 30.44 30.64 30.57 30.32 30.24 30.25 30.57 30.80 30.93 31.00 31.00 31.30 31.62 31.82 32.03 32.26 32.37 32.48 32.64 32.72 32.80 32.85 32.80 33.15
34.00 33.60 33.53 33.81 34.09 34.17 34.21 34.33 34.25 34.02 33.64 33.24 32.82 32.55 32.46 32.30 32.74 33.21 33.57 33.27 33.07 32.58 32.05 31.47 30.77 30.52 30.57 30.65 30.27 31.22 32.18 31.83 31.40 31.22 31.15 30.99 30.74 30.55 30.50 30.46 30.75 30.59 30.20 30.02 30.19 30.27 30.20 30.14 30.01 29.74 29.79 30.29 30.77 31.07 31.18 31.21 31.37 31.68 31.99 32.23 32.29 32.49 32.54 32.62 32.72 33.01 33.24 33.31 33.64
33.93 33.60 33.72 34.07 34.22 34.45 34.56 34.70 34.35 33.90 33.42 33.07 32.67 32.31 32.14 31.86 32.17 32.38 32.41 32.28 32.77 32.33 31.66 31.42 31.06 30.70 30.31 30.05 29.74 30.52 31.70 32.18 31.44 31.12 30.81 30.38 30.06 29.97 30.12 30.24 30.35 30.05 29.49 29.00 29.54 29.80 29.89 29.94 29.60 29.42 29.59 30.20 30.61 30.95 31.27 31.51 31.58 31.85 32.25 32.40 32.58 32.70 32.94 33.15 33.45 33.57 33.71 33.80 33.73
34.01 34.05 34.19 34.39 34.51 34.47 34.46 34.26 33.80 33.37 33.06 32.92 32.61 32.31 31.90 31.44 31.57 31.86 32.13 32.20 31.99 31.39 30.94 31.25 31.39 31.25 30.84 30.29 30.12 30.17 30.66 31.91 31.22 30.83 30.61 30.23 30.21 30.25 30.30 30.39 30.19 29.91 29.44 28.77 29.06 29.37 29.55 29.55 29.42 29.55 29.87 30.10 30.68 30.99 31.29 31.58 31.80 32.06 32.33 32.53 32.82 33.27 33.67 33.75 33.80 33.83 33.88 33.93 33.90
34.33 34.32 34.35 34.29 34.30 34.07 33.81 33.37 32.96 32.91 32.83 32.68 32.31 32.00 31.57 31.27 31.27 31.35 31.50 31.57 31.03 30.61 30.56 30.92 31.26 31.34 31.33 31.06 31.02 30.65 30.50 31.31 30.67 30.40 30.29 30.18 30.29 30.27 30.20 30.15 29.63 29.49 29.25 28.75 28.31 28.62 29.06 29.35 29.65 30.04 30.24 30.13 29.99 30.57 31.33 31.77 32.09 32.32 32.54 32.70 33.06 33.51 33.90 33.84 33.78 33.77 33.92 34.06 33.99
34.51 34.20 33.87 33.57 33.76 33.96 33.77 32.84 32.58 32.55 32.59 32.43 32.03 31.61 31.42 31.17 30.88 30.52 30.36 30.33 30.83 30.85 30.76 30.91 31.02 31.09 31.16 31.15 31.06 30.71 30.31 30.15 29.71 29.46 29.25 28.99 29.16 29.17 29.13 29.02 29.02 29.14 29.47 29.74 28.52 28.08 28.32 29.03 29.33 29.52 29.61 29.59 29.47 30.41 31.56 32.04 32.30 32.53 32.71 33.01 33.47 33.70 33.85 33.92 33.88 33.86 33.88 33.87 33.82
34.05 33.58 33.22 32.95 32.95 33.02 32.90 32.33 32.36 32.56 32.67 32.43 31.86 31.50 31.19 31.01 30.42 29.92 29.57 29.67 30.39 30.68 30.82 31.26 31.25 30.90 30.53 30.25 29.95 29.79 29.69 29.62 29.37 29.13 28.63 28.06 28.02 28.15 28.24 28.21 28.57 29.06 29.56 30.02 29.80 29.80 30.21 31.37 31.14 30.95 30.89 30.72 31.55 32.35 32.80 32.47 32.56 32.61 32.83 33.20 33.46 33.77 33.94 34.18 34.09 33.86 33.67 33.61 33.63
33.40 33.06 32.75 32.29 32.26 32.24 32.20 32.06 32.42 32.71 32.83 32.39 31.75 31.30 31.05 30.71 30.22 29.95 29.85 29.83 30.19 30.36 30.55 30.63 30.50 30.04 29.51 29.27 28.82 28.75 28.76 28.92 29.00 29.18 29.05 28.62 28.31 28.11 28.20 28.54 29.02 29.48 30.02 30.95 33.33 35.53 36.99 37.77 37.16 36.20 35.01 34.15 34.43 34.16 33.54 32.45 32.31 32.61 33.01 33.27 33.53 33.82 34.08 34.17 34.11 33.84 33.59 33.71 33.77
32.81 32.66 32.41 31.99 32.07 32.14 32.21 32.36 32.74 32.87 32.60 31.91 31.30 31.13 30.98 30.68 30.56 30.42 30.42 30.69 30.63 30.55 30.37 30.27 29.86 30.03 30.10 29.52 28.88 28.36 28.12 28.10 28.37 28.84 29.27 29.35 29.61 29.35 29.22 29.64 30.35 30.37 30.84 32.49 35.28 37.34 38.71 39.51 39.86 39.64 38.98 38.12 37.13 35.72 34.29 33.36 33.44 33.58 33.51 33.45 33.62 33.63 33.49 33.59 33.86 33.99 33.85 33.78 33.93
32.57 32.44 32.20 31.86 32.12 32.38 32.56 32.64 32.76 32.60 32.21 31.51 31.31 31.31 31.14 30.72 30.73 30.75 30.88 31.23 30.92 30.38 29.89 29.63 29.23 30.83 32.25 30.80 29.54 28.76 28.35 28.29 28.15 28.46 29.10 29.41 29.76 29.86 30.05 30.68 31.01 31.02 31.60 33.69 36.44 38.16 39.28 39.82 40.16 40.29 40.19 39.68 38.54 37.10 35.78 35.24 35.16 34.81 34.18 33.87 33.75 33.41 33.05 32.90 33.32 33.52 33.59 33.64 33.80
32.58 32.38 32.11 31.85 32.38 32.59 32.58 32.35 32.34 32.21 31.99 31.70 31.70 31.47 31.05 30.40 30.56 30.85 31.00 31.15 30.45 29.87 29.54 29.44 29.65 30.82 31.65 30.53 29.85 29.25 28.88 28.72 28.53 28.50 28.58 28.68 29.02 29.29 29.78 30.75 31.02 31.82 33.33 35.98 37.72 38.84 39.43 39.86 40.12 40.25 40.18 39.97 39.12 37.23 35.56 35.37 35.54 35.08 34.63 34.24 33.86 33.57 33.32 33.05 33.12 33.23 33.17 33.12 33.27
32.64 32.34 32.08 32.30 32.62 32.52 32.29 32.07 32.38 32.51 32.16 31.61 31.41 31.02 30.63 30.38 30.55 30.90 30.92 30.75 30.23 30.16 30.10 29.98 30.64 30.49 30.17 30.16 29.76 29.37 28.93 28.67 28.70 28.76 28.64 28.33 28.72 29.13 29.69 30.51 30.85 32.05 34.08 36.99 38.21 38.89 39.25 39.64 39.94 40.16 40.25 40.14 39.30 38.28 37.35 36.78 36.16 35.50 34.95 34.52 34.07 33.84 33.51 33.29 33.30 33.18 33.07 32.87 32.96
32.70 32.56 32.57 32.81 32.80 32.62 32.40 32.39 32.64 32.44 31.96 31.41 31.04 30.91 30.85 30.83 30.96 31.17 31.17 31.02 30.66 30.73 30.71 30.19 30.61 30.51 30.24 30.10 29.83 29.60 29.47 29.35 29.17 29.08 28.92 28.68 28.97 29.45 30.35 31.73 31.75 32.52 34.13 36.85 37.89 38.66 39.11 39.43 39.77 40.08 40.25 40.18 39.68 39.04 38.22 37.02 36.01 35.32 34.85 34.27 33.92 33.53 33.18 32.95 32.91 32.81 32.75 32.85 32.90
32.66 32.76 32.95 33.19 33.00 32.81 32.66 32.50 32.18 31.80 31.40 31.34 31.19 31.32 31.56 31.73 31.78 31.69 31.49 30.95 30.81 31.29 31.59 30.50 30.18 30.26 30.21 30.09 29.91 30.03 30.14 30.07 29.66 29.44 29.17 28.88 30.25 31.30 31.97 32.04 31.39 31.99 33.72 36.43 37.61 38.47 38.98 39.43 39.70 40.03 40.16 40.13 39.49 38.91 38.07 36.53 35.44 34.72 34.35 33.99 33.64 33.32 33.07 32.92 32.84 32.87 32.92 32.93 32.73
32.45 32.71 32.97 33.30 33.13 32.81 32.45 31.98 31.50 31.29 31.25 31.45 31.69 31.88 31.97 32.14 31.94 31.46 30.92 30.56 30.76 31.03 31.06 30.48 30.14 30.08 30.09 29.73 29.76 29.88 30.07 30.07 29.97 29.86 29.88 29.83 30.06 30.51 30.98 31.39 30.82 31.55 33.46 36.20 37.56 38.39 38.90 39.31 39.54 39.71 39.84 39.88 39.32 38.82 37.82 35.76 34.77 34.15 33.81 33.39 33.11 32.95 32.94 32.86 33.04 33.19 33.14 32.94 32.73
32.09 32.46 32.89 33.17 33.03 32.63 32.09 31.67 31.44 31.38 31.49 31.82 31.92 32.05 32.11 32.04 31.09 30.27 29.79 30.01 30.65 30.76 30.63 30.53 30.50 30.50 30.52 30.23 30.09 30.11 30.11 30.14 30.35 31.00 31.72 32.10 31.59 31.09 30.95 31.41 31.09 32.30 34.29 36.64 37.70 38.46 38.91 39.15 39.25 39.42 39.46 39.46 39.04 38.29 36.99 35.16 34.40 33.95 33.69 33.54 33.42 33.35 33.23 33.10 32.89 32.90 32.90 32.87 32.79
31.85 32.19 32.67 32.97 32.92 32.47 31.96 31.73 31.66 31.62 31.66 31.82 31.85 31.95 31.85 31.43 30.65 30.00 29.76 30.40 30.51 30.39 30.34 30.49 30.67 30.81 30.82 30.64 30.83 30.83 31.08 31.96 31.74 31.39 31.21 31.24 30.73 30.34 30.30 30.69 31.03 32.74 35.02 36.78 37.72 38.30 38.66 38.92 39.02 39.16 39.09 39.13 38.60 37.41 35.91 34.42 33.91 33.56 33.43 33.36 33.43 33.39 33.25 33.18 32.87 32.61 32.57 32.70 32.89
31.92 32.30 32.61 32.71 32.65 32.31 32.01 31.78 31.69 31.66 31.77 31.85 31.82 31.56 31.15 30.90 30.76 30.53 30.66 31.59 30.91 30.03 29.36 29.37 29.60 29.79 29.90 29.92 30.34 30.71 31.18 32.06 31.73 31.19 30.60 30.09 29.53 29.50 29.92 30.52 31.08 32.80 35.01 36.71 37.52 38.03 38.35 38.50 38.72 38.78 38.71 38.60 37.87 36.71 35.38 34.11 33.61 33.35 33.19 33.17 33.16 33.06 33.03 33.22 33.12 32.92 32.78 32.99 33.16
32.21 32.70 32.75 32.67 32.34 32.14 31.94 31.78 31.60 31.59 31.77 31.97 31.85 31.45 31.00 30.70 30.53 30.50 31.01 32.55 31.55 30.26 29.15 28.68 28.62 28.91 29.24 29.45 29.57 30.41 31.32 31.53 31.31 31.04 30.56 30.08 29.49 29.49 29.77 30.34 30.70 32.36 34.47 36.31 37.04 37.62 37.92 38.08 38.30 38.44 38.33 37.98 37.07 36.00 34.86 33.84 33.48 33.29 33.09 32.95 32.92 32.95 33.04 33.09 33.20 33.19 33.18 33.32 33.48
32.41 32.95 33.06 32.79 32.35 32.02 31.77 31.62 31.49 31.60 31.88 32.11 32.14 31.93 31.62 30.96 30.10 29.68 30.13 31.95 30.86 29.99 29.27 28.86 28.98 29.29 29.81 30.09 30.18 30.73 31.22 31.22 30.95 30.70 30.73 30.98 30.59 30.29 30.19 30.54 30.51 31.65 33.35 35.45 36.39 37.06 37.44 37.74 38.04 38.07 37.81 37.14 36.21 35.29 34.44 33.75 33.52 33.30 33.18 33.02 32.87 32.95 33.02 33.24 33.49 33.60 33.64 33.38 33.69
32.53 33.08 33.26 33.03 32.53 32.18 31.84 31.49 31.65 32.02 32.31 32.36 32.08 31.69 31.22 30.72 29.99 29.30 29.54 31.84 30.57 29.93 29.57 29.16 29.53 29.98 30.34 30.65 30.84 30.79 30.60 30.36 30.64 30.73 30.67 30.76 30.78 30.60 30.39 30.42 30.37 31.05 32.43 34.48 35.70 36.55 37.10 37.52 37.75 37.76 37.34 36.36 35.77 35.06 34.45 33.88 33.54 33.32 33.25 33.22 33.31 33.32 33.37 33.47 33.82 33.97 33.90 33.36 34.06
32.52 32.95 33.26 33.14 32.71 32.24 31.74 31.50 31.82 32.29 32.49 32.41 31.73 30.94 30.24 29.90 29.70 29.38 29.81 32.00 30.54 30.05 30.05 29.81 30.12 30.33 30.64 31.06 31.15 30.93 30.59 29.92 30.20 30.65 30.99 30.69 30.71 31.11 31.42 31.04 30.80 31.32 32.39 34.24 35.49 36.33 36.76 37.20 37.39 37.49 37.29 36.53 35.81 35.10 34.50 33.97 33.61 33.38 33.35 33.43 33.50 33.56 33.60 33.80 33.93 33.93 33.84 33.64 34.67
32.46 32.70 32.91 33.02 32.76 32.35 31.94 31.74 31.95 32.29 32.35 32.14 31.58 30.79 29.93 29.70 29.93 30.15 30.50 31.31 29.90 29.76 30.08 30.36 30.49 30.66 31.03 32.07 31.72 31.27 30.68 30.16 29.59 29.91 30.59 30.99 31.02 32.11 32.97 32.57 31.99 31.99 32.75 34.24 35.36 35.96 36.42 36.83 37.03 37.22 37.18 36.55 35.90 35.17 34.52 33.98 33.54 33.39 33.45 33.73 33.69 33.74 33.79 34.01 33.99 33.91 33.91 33.88 34.55
32.21 32.39 32.67 32.84 32.67 32.41 32.17 32.08 32.00 31.77 31.61 31.54 31.39 30.99 30.64 30.59 30.41 30.27 30.06 29.80 29.17 29.29 29.86 30.45 30.58 30.58 30.90 31.95 31.77 31.13 30.47 30.29 30.13 29.95 30.10 30.89 30.98 32.02 32.97 32.74 32.16 31.73 31.84 32.75 34.14 35.10 35.74 36.29 36.63 37.08 37.13 36.58 36.13 35.49 34.80 34.10 33.59 33.38 33.49 33.75 33.77 33.59 33.42 33.43 33.66 33.78 33.87 33.94 34.16
MSLP
1020.47 1020.59 1020.75 1020.95 1021.07 1021.23 1021.47 1021.67 1021.87 1022.07 1022.31 1022.51 1022.75 1022.95 1023.11 1023.23 1023.47 1023.63 1023.79 1023.91 1023.99 1024.15 1024.31 1024.47 1024.51 1024.63 1024.75 1024.83 1024.91 1024.95 1025.03 1025.11 1025.19 1025.23 1025.31 1025.39 1025.47 1025.55 1025.63 1025.67 1025.71 1025.75 1025.75 1025.75 1025.79 1025.79 1025.83 1025.87 1025.83 1025.83 1025.83 1025.79 1025.75 1025.75 1025.71 1025.71 1025.67 1025.63 1025.55 1025.51 1025.47 1025.43 1025.39 1025.35 1025.27 1025.23 1025.23 1025.19 1025.19
1020.47 1020.59 1020.75 1020.91 1021.03 1021.19 1021.47 1021.71 1021.95 1022.19 1022.31 1022.47 1022.59 1022.79 1022.99 1023.11 1023.35 1023.59 1023.75 1023.87 1023.95 1024.07 1024.23 1024.35 1024.47 1024.51 1024.63 1024.75 1024.79 1024.87 1024.95 1025.03 1025.15 1025.23 1025.31 1025.43 1025.51 1025.59 1025.63 1025.63 1025.71 1025.71 1025.71 1025.75 1025.75 1025.75 1025.75 1025.79 1025.75 1025.75 1025.75 1025.75 1025.75 1025.71 1025.67 1025.63 1025.63 1025.63 1025.51 1025.47 1025.43 1025.43 1025.39 1025.31 1025.23 1025.19 1025.19 1025.19 1025.15
1020.47 1020.59 1020.75 1020.87 1021.03 1021.19 1021.47 1021.75 1021.99 1022.19 1022.35 1022.47 1022.63 1022.79 1022.91 1023.07 1023.27 1023.47 1023.67 1023.83 1023.95 1024.03 1024.11 1024.19 1024.31 1024.43 1024.51 1024.67 1024.79 1024.87 1024.91 1025.03 1025.11 1025.23 1025.31 1025.43 1025.47 1025.55 1025.63 1025.63 1025.67 1025.67 1025.71 1025.71 1025.71 1025.71 1025.71 1025.75 1025.75 1025.71 1025.71 1025.67 1025.67 1025.63 1025.59 1025.63 1025.63 1025.55 1025.47 1025.39 1025.39 1025.35 1025.35 1025.31 1025.19 1025.19 1025.19 1025.15 1025.07
1020.47 1020.59 1020.71 1020.79 1020.91 1021.03 1021.27 1021.55 1021.87 1022.11 1022.31 1022.51 1022.71 1022.83 1022.95 1023.11 1023.27 1023.47 1023.67 1023.83 1023.91 1023.95 1023.99 1024.07 1024.23 1024.35 1024.47 1024.63 1024.75 1024.87 1024.95 1025.03 1025.15 1025.23 1025.31 1025.39 1025.47 1025.51 1025.59 1025.63 1025.63 1025.63 1025.63 1025.71 1025.67 1025.67 1025.71 1025.75 1025.71 1025.67 1025.63 1025.63 1025.63 1025.59 1025.51 1025.51 1025.51 1025.47 1025.43 1025.39 1025.35 1025.31 1025.31 1025.23 1025.19 1025.15 1025.11 1025.07 1025.03
1020.47 1020.51 1020.59 1020.67 1020.75 1020.91 1021.11 1021.39 1021.71 1021.99 1022.23 1022.47 1022.67 1022.87 1023.03 1023.19 1023.31 1023.47 1023.63 1023.75 1023.79 1023.83 1023.91 1024.03 1024.19 1024.31 1024.47 1024.59 1024.75 1024.87 1024.99 1025.07 1025.11 1025.19 1025.31 1025.35 1025.39 1025.47 1025.51 1025.59 1025.59 1025.59 1025.59 1025.63 1025.63 1025.63 1025.67 1025.71 1025.67 1025.63 1025.63 1025.63 1025.55 1025.51 1025.47 1025.43 1025.47 1025.43 1025.35 1025.35 1025.31 1025.31 1025.23 1025.19 1025.15 1025.11 1025.07 1025.03 1024.95
1020.43 1020.47 1020.59 1020.67 1020.75 1020.91 1021.11 1021.39 1021.63 1021.87 1022.11 1022.39 1022.59 1022.79 1023.03 1023.19 1023.31 1023.43 1023.47 1023.59 1023.67 1023.79 1023.91 1024.03 1024.15 1024.31 1024.47 1024.63 1024.75 1024.87 1024.99 1025.07 1025.11 1025.19 1025.23 1025.31 1025.35 1025.43 1025.47 1025.51 1025.51 1025.55 1025.55 1025.59 1025.59 1025.63 1025.63 1025.63 1025.63 1025.59 1025.55 1025.55 1025.47 1025.43 1025.43 1025.47 1025.43 1025.35 1025.31 1025.27 1025.23 1025.19 1025.19 1025.15 1025.07 1025.03 1025.03 1024.95 1024.87
1020.31 1020.47 1020.63 1020.75 1020.83 1020.95 1021.19 1021.47 1021.67 1021.91 1022.11 1022.31 1022.51 1022.71 1022.91 1023.07 1023.19 1023.27 1023.31 1023.47 1023.63 1023.75 1023.91 1024.03 1024.15 1024.31 1024.47 1024.59 1024.71 1024.83 1024.91 1025.03 1025.11 1025.19 1025.19 1025.23 1025.27 1025.31 1025.35 1025.39 1025.47 1025.47 1025.51 1025.55 1025.55 1025.55 1025.59 1025.59 1025.55 1025.51 1025.47 1025.47 1025.39 1025.35 1025.39 1025.43 1025.39 1025.31 1025.19 1025.15 1025.11 1025.11 1025.07 1025.03 1025.03 1024.99 1024.91 1024.87 1024.79
1020.27 1020.43 1020.59 1020.75 1020.83 1020.95 1021.19 1021.47 1021.71 1021.91 1022.11 1022.31 1022.47 1022.63 1022.79 1022.91 1023.03 1023.11 1023.23 1023.43 1023.59 1023.75 1023.91 1024.03 1024.15 1024.27 1024.39 1024.47 1024.59 1024.75 1024.83 1024.91 1025.03 1025.07 1025.15 1025.15 1025.19 1025.23 1025.27 1025.31 1025.35 1025.39 1025.43 1025.47 1025.47 1025.47 1025.47 1025.47 1025.47 1025.43 1025.39 1025.35 1025.31 1025.27 1025.31 1025.31 1025.31 1025.19 1025.15 1025.03 1025.03 1024.99 1024.99 1024.99 1024.91 1024.91 1024.87 1024.83 1024.75
1020.35 1020.51 1020.59 1020.75 1020.87 1021.03 1021.19 1021.47 1021.63 1021.87 1022.07 1022.27 1022.47 1022.59 1022.71 1022.79 1022.91 1023.03 1023.19 1023.35 1023.51 1023.71 1023.87 1024.03 1024.15 1024.27 1024.35 1024.43 1024.51 1024.63 1024.75 1024.79 1024.91 1024.99 1025.03 1025.03 1025.07 1025.11 1025.15 1025.19 1025.23 1025.27 1025.31 1025.35 1025.35 1025.39 1025.39 1025.39 1025.39 1025.35 1025.31 1025.27 1025.23 1025.19 1025.19 1025.23 1025.19 1025.11 1025.03 1024.95 1024.91 1024.87 1024.87 1024.91 1024.91 1024.83 1024.79 1024.75 1024.71
1020.35 1020.59 1020.75 1020.87 1020.99 1021.11 1021.27 1021.51 1021.71 1021.87 1022.03 1022.27 1022.47 1022.59 1022.63 1022.71 1022.83 1022.95 1023.11 1023.27 1023.47 1023.71 1023.87 1023.99 1024.11 1024.23 1024.31 1024.35 1024.47 1024.55 1024.63 1024.71 1024.75 1024.83 1024.91 1024.91 1024.95 1024.99 1025.03 1025.03 1025.11 1025.15 1025.19 1025.27 1025.31 1025.31 1025.31 1025.31 1025.31 1025.27 1025.19 1025.19 1025.19 1025.11 1025.07 1025.11 1025.07 1025.03 1024.95 1024.91 1024.83 1024.79 1024.75 1024.75 1024.75 1024.75 1024.71 1024.63 1024.59
1020.31 1020.47 1020.67 1020.79 1020.99 1021.19 1021.31 1021.59 1021.79 1021.95 1022.11 1022.27 1022.47 1022.55 1022.59 1022.71 1022.83 1022.99 1023.11 1023.31 1023.47 1023.67 1023.83 1023.91 1024.03 1024.15 1024.19 1024.31 1024.39 1024.47 1024.55 1024.59 1024.67 1024.75 1024.79 1024.83 1024.87 1024.91 1024.95 1025.03 1025.03 1025.07 1025.11 1025.15 1025.23 1025.27 1025.27 1025.23 1025.19 1025.15 1025.15 1025.11 1025.07 1025.03 1025.03 1024.99 1024.95 1024.91 1024.87 1024.79 1024.75 1024.75 1024.67 1024.59 1024.59 1024.59 1024.59 1024.51 1024.47
1020.23 1020.47 1020.59 1020.75 1020.95 1021.19 1021.35 1021.63 1021.79 1021.99 1022.15 1022.31 1022.43 1022.51 1022.59 1022.71 1022.87 1023.03 1023.15 1023.31 1023.47 1023.63 1023.75 1023.87 1023.95 1024.03 1024.11 1024.19 1024.31 1024.39 1024.47 1024.59 1024.63 1024.63 1024.67 1024.75 1024.83 1024.87 1024.91 1024.99 1025.03 1025.03 1025.07 1025.11 1025.19 1025.19 1025.19 1025.15 1025.11 1025.03 1024.99 1024.99 1024.95 1024.91 1024.87 1024.87 1024.83 1024.79 1024.75 1024.71 1024.67 1024.67 1024.59 1024.51 1024.47 1024.47 1024.43 1024.39 1024.35
1020.19 1020.43 1020.63 1020.83 1020.99 1021.19 1021.35 1021.55 1021.75 1021.95 1022.11 1022.23 1022.35 1022.47 1022.59 1022.75 1022.91 1023.03 1023.15 1023.27 1023.35 1023.51 1023.71 1023.83 1023.91 1023.95 1024.03 1024.15 1024.23 1024.31 1024.43 1024.47 1024.55 1024.59 1024.59 1024.67 1024.75 1024.83 1024.91 1024.91 1024.95 1024.99 1025.03 1025.03 1025.11 1025.11 1025.07 1025.03 1025.03 1024.99 1024.91 1024.87 1024.79 1024.75 1024.75 1024.75 1024.75 1024.71 1024.67 1024.59 1024.59 1024.55 1024.47 1024.43 1024.35 1024.31 1024.27 1024.27 1024.23
1020.19 1020.39 1020.59 1020.83 1021.03 1021.15 1021.31 1021.51 1021.71 1021.87 1022.03 1022.19 1022.31 1022.43 1022.59 1022.79 1022.91 1023.03 1023.07 1023.19 1023.31 1023.47 1023.63 1023.79 1023.91 1023.91 1023.99 1024.07 1024.15 1024.23 1024.31 1024.43 1024.47 1024.51 1024.55 1024.59 1024.67 1024.75 1024.79 1024.83 1024.91 1024.91 1024.95 1024.95 1025.03 1025.03 1024.99 1024.95 1024.91 1024.87 1024.79 1024.75 1024.67 1024.63 1024.63 1024.63 1024.63 1024.59 1024.59 1024.55 1024.47 1024.43 1024.31 1024.27 1024.19 1024.19 1024.15 1024.11 1024.03
1020.19 1020.35 1020.55 1020.75 1020.91 1021.03 1021.23 1021.47 1021.63 1021.75 1021.91 1022.07 1022.27 1022.39 1022.55 1022.75 1022.87 1022.99 1023.03 1023.11 1023.27 1023.39 1023.55 1023.71 1023.79 1023.91 1023.95 1024.03 1024.11 1024.19 1024.27 1024.31 1024.39 1024.47 1024.47 1024.55 1024.59 1024.67 1024.71 1024.75 1024.79 1024.83 1024.87 1024.87 1024.91 1024.91 1024.91 1024.87 1024.83 1024.75 1024.71 1024.63 1024.59 1024.55 1024.51 1024.51 1024.51 1024.51 1024.47 1024.47 1024.39 1024.31 1024.23 1024.11 1024.03 1024.03 1024.03 1023.95 1023.91
1020.15 1020.35 1020.51 1020.63 1020.79 1020.95 1021.15 1021.31 1021.47 1021.67 1021.83 1022.03 1022.19 1022.35 1022.51 1022.63 1022.79 1022.91 1022.99 1023.07 1023.23 1023.39 1023.51 1023.63 1023.71 1023.83 1023.91 1024.03 1024.07 1024.19 1024.23 1024.27 1024.31 1024.35 1024.43 1024.47 1024.51 1024.59 1024.59 1024.63 1024.67 1024.71 1024.75 1024.75 1024.75 1024.75 1024.75 1024.75 1024.67 1024.67 1024.63 1024.55 1024.47 1024.47 1024.39 1024.35 1024.35 1024.35 1024.31 1024.31 1024.23 1024.19 1024.11 1024.03 1023.95 1023.91 1023.87 1023.79 1023.71
1020.07 1020.27 1020.43 1020.55 1020.67 1020.83 1021.03 1021.19 1021.35 1021.55 1021.75 1021.91 1022.11 1022.27 1022.43 1022.55 1022.71 1022.79 1022.91 1022.99 1023.15 1023.31 1023.43 1023.55 1023.67 1023.75 1023.87 1023.91 1024.03 1024.07 1024.11 1024.19 1024.23 1024.27 1024.31 1024.35 1024.43 1024.47 1024.47 1024.55 1024.55 1024.59 1024.67 1024.67 1024.63 1024.59 1024.55 1024.55 1024.51 1024.55 1024.55 1024.47 1024.43 1024.31 1024.31 1024.27 1024.23 1024.19 1024.15 1024.11 1024.03 1024.03 1023.91 1023.87 1023.79 1023.75 1023.67 1023.63 1023.51
1019.99 1020.19 1020.31 1020.43 1020.51 1020.71 1020.91 1021.07 1021.23 1021.39 1021.63 1021.83 1022.03 1022.19 1022.31 1022.43 1022.59 1022.71 1022.79 1022.91 1023.03 1023.15 1023.31 1023.47 1023.63 1023.71 1023.75 1023.83 1023.91 1023.95 1023.99 1024.03 1024.11 1024.19 1024.19 1024.27 1024.31 1024.31 1024.35 1024.43 1024.47 1024.51 1024.59 1024.59 1024.51 1024.47 1024.39 1024.35 1024.35 1024.39 1024.39 1024.35 1024.31 1024.27 1024.19 1024.19 1024.11 1024.03 1023.99 1023.91 1023.87 1023.83 1023.75 1023.71 1023.63 1023.59 1023.51 1023.43 1023.31
1019.87 1020.03 1020.19 1020.31 1020.39 1020.55 1020.75 1020.91 1021.11 1021.27 1021.47 1021.71 1021.91 1022.07 1022.23 1022.35 1022.47 1022.59 1022.75 1022.87 1022.95 1023.03 1023.19 1023.35 1023.51 1023.63 1023.67 1023.71 1023.79 1023.83 1023.87 1023.91 1023.99 1024.03 1024.07 1024.15 1024.19 1024.23 1024.27 1024.31 1024.31 1024.39 1024.47 1024.43 1024.39 1024.31 1024.31 1024.27 1024.23 1024.23 1024.19 1024.19 1024.15 1024.11 1024.03 1024.03 1023.91 1023.87 1023.79 1023.75 1023.67 1023.63 1023.55 1023.47 1023.47 1023.35 1023.31 1023.23 1023.15
1019.63 1019.83 1019.99 1020.07 1020.23 1020.43 1020.59 1020.75 1020.95 1021.19 1021.39 1021.63 1021.79 1022.03 1022.19 1022.31 1022.43 1022.55 1022.67 1022.83 1022.91 1022.99 1023.11 1023.23 1023.35 1023.47 1023.55 1023.63 1023.67 1023.75 1023.75 1023.79 1023.87 1023.91 1023.99 1024.03 1024.11 1024.15 1024.15 1024.19 1024.23 1024.31 1024.31 1024.31 1024.27 1024.23 1024.19 1024.15 1024.11 1024.07 1024.03 1024.03 1023.95 1023.91 1023.83 1023.75 1023.71 1023.63 1023.63 1023.55 1023.47 1023.39 1023.31 1023.27 1023.19 1023.15 1023.07 1023.03 1022.95
1019.47 1019.63 1019.75 1019.91 1020.11 1020.31 1020.47 1020.63 1020.87 1021.07 1021.31 1021.55 1021.75 1021.91 1022.11 1022.27 1022.35 1022.47 1022.59 1022.71 1022.87 1022.99 1023.07 1023.15 1023.19 1023.31 1023.39 1023.47 1023.59 1023.63 1023.71 1023.75 1023.79 1023.83 1023.87 1023.95 1023.99 1024.03 1024.03 1024.07 1024.15 1024.15 1024.19 1024.19 1024.11 1024.07 1024.03 1024.03 1023.95 1023.91 1023.87 1023.83 1023.75 1023.67 1023.63 1023.55 1023.47 1023.39 1023.35 1023.31 1023.19 1023.15 1023.07 1023.03 1022.95 1022.91 1022.87 1022.79 1022.75
1019.31 1019.47 1019.63 1019.87 1020.03 1020.19 1020.43 1020.63 1020.87 1021.07 1021.31 1021.55 1021.71 1021.87 1022.03 1022.19 1022.31 1022.39 1022.51 1022.67 1022.83 1022.91 1022.99 1023.03 1023.11 1023.19 1023.27 1023.35 1023.47 1023.55 1023.63 1023.67 1023.75 1023.75 1023.79 1023.87 1023.87 1023.91 1023.95 1024.03 1024.03 1024.03 1024.03 1024.03 1023.95 1023.91 1023.91 1023.87 1023.79 1023.75 1023.71 1023.63 1023.55 1023.47 1023.43 1023.35 1023.23 1023.19 1023.11 1023.03 1022.95 1022.87 1022.83 1022.75 1022.71 1022.63 1022.59 1022.55 1022.47
1019.23 1019.47 1019.63 1019.87 1020.03 1020.19 1020.43 1020.67 1020.91 1021.11 1021.31 1021.47 1021.67 1021.83 1021.95 1022.11 1022.27 1022.43 1022.55 1022.67 1022.75 1022.83 1022.91 1022.95 1023.03 1023.07 1023.19 1023.27 1023.35 1023.47 1023.51 1023.63 1023.67 1023.71 1023.75 1023.75 1023.79 1023.83 1023.91 1023.95 1023.91 1023.91 1023.87 1023.83 1023.83 1023.83 1023.75 1023.71 1023.63 1023.55 1023.47 1023.43 1023.31 1023.27 1023.19 1023.11 1023.03 1022.99 1022.91 1022.75 1022.71 1022.63 1022.59 1022.51 1022.47 1022.43 1022.39 1022.31 1022.27
1019.19 1019.47 1019.63 1019.87 1020.03 1020.23 1020.47 1020.67 1020.91 1021.15 1021.31 1021.47 1021.63 1021.75 1021.91 1022.03 1022.23 1022.39 1022.51 1022.59 1022.67 1022.75 1022.79 1022.91 1022.91 1023.03 1023.15 1023.27 1023.35 1023.39 1023.47 1023.47 1023.51 1023.59 1023.63 1023.71 1023.71 1023.75 1023.75 1023.79 1023.75 1023.75 1023.71 1023.67 1023.63 1023.63 1023.55 1023.39 1023.31 1023.23 1023.19 1023.15 1023.07 1022.99 1022.91 1022.87 1022.83 1022.75 1022.71 1022.59 1022.47 1022.39 1022.31 1022.23 1022.23 1022.19 1022.19 1022.07 1022.03
1019.19 1019.39 1019.63 1019.87 1020.03 1020.27 1020.47 1020.71 1020.91 1021.03 1021.19 1021.35 1021.51 1021.71 1021.87 1022.03 1022.19 1022.31 1022.47 1022.51 1022.59 1022.67 1022.75 1022.83 1022.91 1023.03 1023.19 1023.23 1023.31 1023.35 1023.35 1023.35 1023.39 1023.43 1023.47 1023.51 1023.51 1023.55 1023.59 1023.63 1023.59 1023.55 1023.51 1023.47 1023.39 1023.27 1023.11 1022.95 1022.91 1022.79 1022.75 1022.75 1022.71 1022.67 1022.67 1022.63 1022.59 1022.59 1022.47 1022.39 1022.31 1022.19 1022.11 1022.03 1021.99 1021.99 1021.91 1021.91 1021.83
1019.15 1019.39 1019.63 1019.83 1020.03 1020.27 1020.47 1020.63 1020.79 1020.91 1021.11 1021.31 1021.47 1021.63 1021.75 1021.91 1022.07 1022.23 1022.31 1022.39 1022.47 1022.59 1022.67 1022.75 1022.91 1023.03 1023.07 1023.15 1023.19 1023.23 1023.27 1023.27 1023.31 1023.31 1023.31 1023.31 1023.31 1023.35 1023.39 1023.39 1023.35 1023.35 1023.31 1023.27 1023.11 1022.95 1022.79 1022.67 1022.55 1022.47 1022.43 1022.39 1022.35 1022.35 1022.39 1022.39 1022.35 1022.31 1022.23 1022.19 1022.15 1022.03 1021.95 1021.87 1021.75 1021.71 1021.67 1021.67 1021.63
1019.11 1019.35 1019.59 1019.79 1020.03 1020.19 1020.39 1020.55 1020.71 1020.91 1021.07 1021.27 1021.43 1021.55 1021.71 1021.87 1022.03 1022.11 1022.19 1022.27 1022.39 1022.51 1022.63 1022.75 1022.83 1022.91 1022.91 1022.99 1023.03 1023.11 1023.11 1023.11 1023.19 1023.19 1023.19 1023.19 1023.19 1023.19 1023.19 1023.19 1023.15 1023.15 1023.15 1023.03 1022.87 1022.71 1022.55 1022.43 1022.31 1022.23 1022.19 1022.11 1022.07 1022.11 1022.11 1022.07 1022.07 1022.03 1022.03 1022.03 1021.99 1021.91 1021.83 1021.75 1021.67 1021.59 1021.47 1021.43 1021.43
1019.03 1019.27 1019.51 1019.75 1019.99 1020.15 1020.31 1020.51 1020.71 1020.87 1021.03 1021.19 1021.31 1021.47 1021.63 1021.79 1021.91 1021.99 1022.07 1022.19 1022.31 1022.47 1022.59 1022.63 1022.71 1022.75 1022.75 1022.83 1022.91 1022.91 1022.91 1022.95 1022.99 1023.03 1023.07 1023.07 1023.03 1023.03 1023.03 1022.95 1022.91 1022.91 1022.87 1022.75 1022.59 1022.47 1022.35 1022.23 1022.15 1022.03 1021.99 1021.91 1021.87 1021.87 1021.91 1021.91 1021.83 1021.83 1021.83 1021.83 1021.79 1021.75 1021.71 1021.63 1021.55 1021.47 1021.39 1021.31 1021.23
1018.95 1019.19 1019.47 1019.75 1019.91 1020.11 1020.31 1020.47 1020.59 1020.75 1020.91 1021.07 1021.23 1021.39 1021.55 1021.71 1021.83 1021.91 1021.99 1022.11 1022.23 1022.31 1022.43 1022.51 1022.55 1022.59 1022.67 1022.67 1022.67 1022.75 1022.79 1022.87 1022.87 1022.91 1022.91 1022.95 1022.91 1022.91 1022.87 1022.79 1022.75 1022.67 1022.59 1022.47 1022.35 1022.27 1022.19 1022.07 1021.99 1021.91 1021.79 1021.75 1021.63 1021.63 1021.63 1021.67 1021.63 1021.63 1021.63 1021.59 1021.55 1021.55 1021.51 1021.47 1021.39 1021.31 1021.23 1021.15 1021.03
1018.91 1019.19 1019.43 1019.63 1019.83 1020.03 1020.23 1020.39 1020.47 1020.59 1020.79 1021.03 1021.19 1021.31 1021.47 1021.63 1021.71 1021.83 1021.91 1022.03 1022.11 1022.19 1022.19 1022.31 1022.39 1022.43 1022.47 1022.47 1022.55 1022.59 1022.63 1022.71 1022.71 1022.75 1022.79 1022.79 1022.75 1022.71 1022.63 1022.55 1022.51 1022.47 1022.39 1022.31 1022.19 1022.11 1021.99 1021.87 1021.75 1021.67 1021.59 1021.51 1021.47 1021.43 1021.43 1021.43 1021.47 1021.43 1021.39 1021.39 1021.39 1021.35 1021.31 1021.27 1021.23 1021.19 1021.07 1020.99 1020.87
1018.87 1019.07 1019.31 1019.47 1019.75 1019.95 1020.11 1020.23 1020.39 1020.59 1020.75 1020.91 1021.11 1021.23 1021.35 1021.47 1021.59 1021.67 1021.75 1021.87 1021.95 1021.99 1022.03 1022.15 1022.23 1022.27 1022.31 1022.31 1022.43 1022.47 1022.47 1022.51 1022.59 1022.59 1022.59 1022.59 1022.55 1022.47 1022.39 1022.31 1022.31 1022.31 1022.19 1022.11 1022.03 1021.91 1021.79 1021.67 1021.55 1021.47 1021.39 1021.31 1021.27 1021.23 1021.19 1021.23 1021.23 1021.23 1021.23 1021.19 1021.19 1021.19 1021.15 1021.07 1021.03 1020.95 1020.91 1020.79 1020.71
1018.83 1019.03 1019.23 1019.43 1019.63 1019.83 1019.99 1020.19 1020.39 1020.55 1020.71 1020.83 1020.99 1021.11 1021.27 1021.35 1021.47 1021.55 1021.63 1021.71 1021.79 1021.91 1021.99 1022.03 1022.11 1022.15 1022.19 1022.23 1022.31 1022.31 1022.31 1022.35 1022.39 1022.39 1022.39 1022.39 1022.31 1022.31 1022.23 1022.19 1022.15 1022.11 1022.03 1021.99 1021.87 1021.75 1021.63 1021.47 1021.39 1021.31 1021.19 1021.15 1021.11 1021.03 1021.03 1021.07 1021.07 1021.07 1021.07 1021.03 1021.03 1020.99 1020.91 1020.91 1020.79 1020.71 1020.63 1020.59 1020.51
1018.79 1018.95 1019.19 1019.35 1019.55 1019.75 1019.95 1020.15 1020.31 1020.47 1020.63 1020.75 1020.91 1021.03 1021.19 1021.27 1021.39 1021.51 1021.59 1021.63 1021.71 1021.75 1021.83 1021.91 1021.91 1021.99 1022.03 1022.07 1022.11 1022.15 1022.19 1022.19 1022.19 1022.15 1022.15 1022.15 1022.11 1022.07 1022.03 1021.99 1021.95 1021.91 1021.87 1021.75 1021.63 1021.51 1021.39 1021.31 1021.19 1021.11 1021.03 1020.99 1020.91 1020.91 1020.91 1020.91 1020.91 1020.91 1020.91 1020.87 1020.79 1020.75 1020.71 1020.67 1020.59 1020.51 1020.47 1020.39 1020.31
1018.75 1018.91 1019.11 1019.27 1019.47 1019.67 1019.91 1020.07 1020.27 1020.47 1020.59 1020.71 1020.87 1020.99 1021.07 1021.19 1021.31 1021.43 1021.47 1021.51 1021.55 1021.63 1021.63 1021.67 1021.75 1021.79 1021.83 1021.87 1021.91 1021.95 1021.95 1021.91 1021.91 1021.95 1021.99 1021.99 1021.95 1021.91 1021.91 1021.87 1021.75 1021.67 1021.63 1021.55 1021.47 1021.31 1021.23 1021.15 1021.03 1020.95 1020.91 1020.83 1020.75 1020.75 1020.75 1020.79 1020.75 1020.71 1020.67 1020.63 1020.59 1020.55 1020.47 1020.47 1020.39 1020.31 1020.31 1020.23 1020.15
1018.67 1018.87 1019.03 1019.19 1019.39 1019.63 1019.83 1020.03 1020.23 1020.39 1020.55 1020.67 1020.79 1020.91 1021.03 1021.11 1021.19 1021.23 1021.27 1021.31 1021.39 1021.47 1021.51 1021.59 1021.63 1021.67 1021.71 1021.75 1021.75 1021.75 1021.75 1021.75 1021.75 1021.75 1021.79 1021.83 1021.83 1021.79 1021.75 1021.63 1021.55 1021.47 1021.47 1021.35 1021.27 1021.15 1021.07 1020.95 1020.87 1020.79 1020.75 1020.63 1020.59 1020.59 1020.63 1020.59 1020.59 1020.51 1020.47 1020.43 1020.35 1020.31 1020.23 1020.19 1020.15 1020.11 1020.07 1020.03 1019.95
1018.51 1018.71 1018.91 1019.15 1019.31 1019.55 1019.75 1019.99 1020.19 1020.31 1020.47 1020.59 1020.71 1020.83 1020.91 1020.99 1021.03 1021.03 1021.07 1021.11 1021.19 1021.31 1021.39 1021.47 1021.55 1021.63 1021.63 1021.63 1021.63 1021.63 1021.59 1021.59 1021.55 1021.55 1021.59 1021.63 1021.67 1021.63 1021.59 1021.47 1021.35 1021.31 1021.27 1021.19 1021.07 1021.03 1020.91 1020.79 1020.71 1020.63 1020.55 1020.47 1020.47 1020.47 1020.47 1020.43 1020.35 1020.31 1020.23 1020.19 1020.15 1020.03 1019.99 1019.99 1019.91 1019.91 1019.83 1019.75 1019.75
1018.39 1018.55 1018.75 1019.03 1019.27 1019.47 1019.71 1019.91 1020.07 1020.23 1020.35 1020.47 1020.51 1020.59 1020.71 1020.75 1020.83 1020.91 1020.95 1020.99 1021.07 1021.19 1021.27 1021.35 1021.47 1021.47 1021.47 1021.43 1021.39 1021.35 1021.35 1021.35 1021.39 1021.39 1021.39 1021.43 1021.47 1021.43 1021.35 1021.23 1021.19 1021.11 1021.03 1021.03 1020.91 1020.87 1020.75 1020.63 1020.55 1020.47 1020.39 1020.31 1020.31 1020.31 1020.27 1020.19 1020.15 1020.07 1020.03 1019.95 1019.87 1019.79 1019.75 1019.75 1019.67 1019.59 1019.55 1019.51 1019.47
1018.31 1018.47 1018.63 1018.91 1019.19 1019.39 1019.63 1019.79 1019.95 1020.07 1020.19 1020.23 1020.31 1020.39 1020.47 1020.59 1020.67 1020.75 1020.79 1020.83 1020.91 1021.03 1021.15 1021.19 1021.23 1021.23 1021.19 1021.15 1021.15 1021.15 1021.19 1021.19 1021.19 1021.23 1021.23 1021.19 1021.23 1021.23 1021.19 1021.11 1021.03 1020.91 1020.87 1020.87 1020.79 1020.67 1020.55 1020.47 1020.35 1020.31 1020.23 1020.19 1020.11 1020.07 1020.03 1019.99 1019.91 1019.83 1019.75 1019.67 1019.55 1019.47 1019.47 1019.47 1019.39 1019.31 1019.27 1019.27 1019.19
1018.27 1018.47 1018.59 1018.83 1019.03 1019.31 1019.51 1019.71 1019.79 1019.87 1019.95 1020.03 1020.15 1020.27 1020.35 1020.43 1020.47 1020.51 1020.59 1020.59 1020.71 1020.79 1020.91 1020.99 1020.95 1020.91 1020.91 1020.95 1020.95 1020.99 1020.99 1021.03 1021.03 1021.07 1021.03 1021.03 1021.03 1021.03 1020.99 1020.91 1020.83 1020.71 1020.63 1020.63 1020.59 1020.47 1020.35 1020.27 1020.19 1020.11 1020.03 1019.99 1019.91 1019.87 1019.83 1019.75 1019.67 1019.59 1019.47 1019.39 1019.31 1019.23 1019.19 1019.19 1019.11 1019.03 1018.95 1018.91 1018.87
1018.27 1018.43 1018.59 1018.75 1018.95 1019.19 1019.35 1019.51 1019.59 1019.63 1019.75 1019.87 1019.95 1020.07 1020.19 1020.19 1020.23 1020.31 1020.39 1020.47 1020.55 1020.59 1020.63 1020.71 1020.71 1020.71 1020.71 1020.75 1020.79 1020.83 1020.83 1020.87 1020.91 1020.91 1020.91 1020.87 1020.83 1020.79 1020.75 1020.71 1020.59 1020.47 1020.43 1020.39 1020.35 1020.27 1020.19 1020.07 1020.03 1019.91 1019.83 1019.79 1019.75 1019.67 1019.63 1019.51 1019.47 1019.31 1019.23 1019.19 1019.07 1018.95 1018.83 1018.79 1018.75 1018.75 1018.63 1018.59 1018.51
1018.27 1018.43 1018.55 1018.71 1018.87 1019.03 1019.19 1019.31 1019.39 1019.47 1019.59 1019.71 1019.75 1019.83 1019.91 1019.99 1020.03 1020.19 1020.31 1020.39 1020.47 1020.47 1020.47 1020.47 1020.51 1020.55 1020.59 1020.63 1020.67 1020.67 1020.71 1020.67 1020.63 1020.67 1020.71 1020.67 1020.63 1020.59 1020.59 1020.47 1020.39 1020.31 1020.27 1020.23 1020.19 1020.11 1020.03 1019.91 1019.83 1019.71 1019.63 1019.55 1019.47 1019.43 1019.35 1019.31 1019.19 1019.07 1018.95 1018.91 1018.79 1018.71 1018.59 1018.47 1018.47 1018.47 1018.39 1018.31 1018.23
Wind_Speed
7 7 7 7 6 6 5 5 6 6 6 7 7 6 6 6 6 5 4 4 4 4 4 4 4 4 3 3 3 4 4 3 3 3 2 2 2 1 1 1 1 1 1 1 1 1 1 1 1 0 0 1 1 1 1 1 1 1 1 2 2 2 2 3 4 4 4 4 4
7 7 7 7 7 6 6 6 6 5 5 5 6 6 6 6 6 5 5 4 4 4 4 4 4 4 4 4 3 3 3 3 3 3 2 2 1 1 1 1 1 1 1 1 1 1 1 1 1 1 1 1 1 1 1 1 1 1 2 2 2 2 2 3 4 4 4 4 4
8 8 7 8 8 7 7 6 6 6 6 5 5 5 5 5 5 5 5 5 5 5 5 4 4 4 4 4 3 3 3 3 3 2 2 1 1 1 1 1 1 1 1 1 1 1 1 1 1 1 1 1 1 1 1 1 2 2 2 3 2 2 2 3 3 4 4 3 4
8 8 8 9 10 10 9 8 8 8 7 6 5 5 5 5 5 5 5 5 5 5 5 5 4 4 4 4 3 3 2 2 3 2 2 1 1 1 1 1 1 1 1 1 1 1 1 1 1 1 1 1 2 2 2 1 2 2 2 2 2 2 2 3 3 3 3 3 4
8 8 9 9 11 11 10 9 10 9 8 6 6 5 5 5 5 5 5 5 5 5 5 5 5 4 3 4 4 3 3 2 2 2 2 2 1 1 1 2 2 2 1 2 2 2 2 1 1 1 1 2 2 2 2 2 2 2 2 2 2 2 3 3 3 3 3 3 4
8 8 8 8 10 10 9 9 10 10 8 7 7 7 6 5 5 6 6 6 5 5 5 6 5 5 4 4 4 3 3 2 2 2 2 2 2 2 2 2 2 2 2 2 2 2 2 2 1 1 1 2 2 2 2 2 2 2 2 2 2 2 2 3 3 3 3 4 5
9 9 8 8 9 10 9 9 9 9 8 8 9 9 8 7 7 7 7 6 6 5 5 5 5 5 4 4 4 3 3 2 2 2 2 2 2 2 2 2 2 2 2 2 2 2 2 1 1 1 1 2 2 2 2 2 2 2 3 3 3 2 3 3 3 3 4 5 6
9 9 9 9 10 11 11 11 10 9 8 7 9 10 10 9 9 9 8 7 6 5 5 4 5 5 5 5 4 4 3 3 3 2 2 2 2 2 2 2 2 2 2 2 2 2 2 2 1 1 2 2 2 2 2 2 2 3 3 4 3 3 3 3 3 4 4 6 6
8 8 8 9 10 11 11 11 10 9 9 8 9 10 10 10 10 9 8 7 6 6 5 4 5 5 5 5 4 4 4 3 3 3 2 2 2 2 2 2 2 2 2 2 2 2 2 1 1 2 2 2 2 2 2 2 2 3 4 4 4 4 4 4 4 4 5 5 6
9 9 9 9 10 10 10 10 9 9 10 9 9 9 9 10 9 8 7 6 6 6 5 4 5 5 5 5 4 4 3 3 3 3 3 2 2 2 2 1 1 1 2 2 2 2 2 1 2 2 2 2 3 3 3 2 3 3 4 3 4 5 5 5 5 5 5 5 6
11 10 10 10 10 10 10 9 8 8 9 9 9 9 9 9 8 8 7 6 6 6 5 5 5 5 5 4 4 4 3 3 2 2 2 2 2 2 2 1 1 1 1 1 1 2 2 2 2 2 3 3 3 3 3 3 3 4 4 4 5 5 6 7 6 5 5 5 6
11 11 10 10 10 10 10 9 8 8 8 9 9 8 8 7 8 7 7 7 7 6 5 5 5 5 5 4 4 3 3 3 2 2 2 2 2 2 2 2 2 2 2 1 1 1 2 2 2 3 3 3 3 3 3 3 3 4 5 5 5 6 6 7 7 6 5 5 6
12 11 10 10 10 10 10 9 8 8 8 9 9 8 7 7 7 7 7 7 7 6 5 4 4 4 4 4 4 3 3 3 3 2 2 2 2 2 2 2 2 2 2 2 2 2 2 2 3 3 4 4 4 3 3 3 4 5 5 6 6 6 7 8 7 7 6 6 6
12 12 11 11 11 10 10 9 8 8 8 9 8 7 7 6 6 6 6 6 6 5 5 4 3 3 3 4 3 3 3 3 3 2 2 2 2 2 2 2 2 2 2 2 2 2 3 3 3 4 4 5 5 5 4 4 4 5 6 6 7 7 8 8 8 7 7 7 7
12 12 11 11 11 10 9 9 8 8 8 9 8 7 6 6 6 5 5 5 6 5 4 4 3 3 3 3 3 3 3 3 3 3 2 2 2 2 2 2 2 2 2 2 2 3 3 4 4 4 4 5 5 5 5 5 5 5 6 7 7 8 8 8 8 8 7 8 8
12 12 11 11 11 10 9 9 7 7 8 8 7 7 6 5 5 5 5 5 5 4 4 4 4 3 3 3 3 3 3 3 3 3 3 2 2 2 3 3 3 3 3 3 3 3 3 4 4 4 4 5 6 6 6 6 6 6 7 7 8 8 8 9 8 8 8 8 8
12 12 11 11 11 11 10 9 8 7 8 8 7 7 6 5 5 4 5 5 4 4 4 4 4 3 3 3 3 3 3 3 3 3 3 3 3 3 3 3 3 3 3 3 3 4 4 4 4 4 4 5 6 6 6 7 7 7 7 8 8 8 9 9 9 9 9 9 9
12 12 12 11 11 11 11 10 9 9 9 9 8 7 6 5 5 4 4 4 4 5 5 4 3 3 3 4 3 3 3 3 3 3 3 3 3 3 3 3 3 3 3 3 4 4 5 4 4 4 4 5 5 6 6 7 7 7 8 8 8 9 9 9 9 9 9 9 10
13 12 12 12 12 11 11 11 10 10 9 9 8 6 6 5 5 5 4 4 4 4 5 5 4 3 3 4 3 3 3 3 3 3 3 3 3 3 3 4 3 3 3 4 4 4 5 5 5 5 5 5 6 6 7 7 7 8 8 9 9 9 9 9 9 9 9 9 10
13 13 12 12 12 11 11 11 10 10 9 8 7 7 6 5 5 5 5 4 4 4 4 5 4 3 3 3 3 3 3 3 3 3 4 3 3 4 4 4 3 3 4 4 4 4 5 5 5 5 5 6 6 7 7 7 8 8 8 8 9 9 9 10 9 9 9 9 10
13 13 12 11 11 11 11 10 10 9 8 8 7 7 6 5 5 5 5 5 4 4 4 4 4 4 4 3 3 3 3 3 3 3 4 3 4 4 4 3 3 3 4 4 4 5 5 5 5 6 6 6 7 7 7 8 8 8 8 8 8 9 9 9 10 10 10 9 10
12 12 11 11 11 10 10 9 9 8 8 7 7 6 6 5 5 5 5 5 4 4 4 4 4 4 4 4 4 3 3 3 3 3 3 3 3 3 3 3 3 3 4 4 5 5 5 5 6 6 6 6 7 7 8 8 8 8 9 9 9 9 9 9 9 9 9 9 9
11 11 10 10 10 10 10 9 8 8 8 7 6 6 5 5 5 4 4 4 4 4 4 3 3 3 3 3 3 3 3 3 3 3 3 3 3 3 3 3 3 4 4 4 4 4 5 5 6 6 6 6 7 8 8 8 8 8 8 9 9 9 9 9 9 9 9 9 9
11 10 9 8 9 9 9 9 8 8 8 7 6 5 5 5 4 4 4 4 4 4 3 3 3 3 3 3 3 3 3 3 3 3 3 3 3 3 3 3 3 4 4 4 4 5 5 5 5 6 6 6 7 7 7 7 7 8 8 9 9 9 9 9 8 8 8 9 8
11 10 10 9 9 9 9 9 8 8 8 7 6 5 5 5 5 4 4 4 4 4 3 3 3 3 3 3 3 3 4 4 4 4 3 3 3 3 3 3 3 3 4 4 6 8 9 8 6 5 5 5 6 6 6 6 7 7 8 8 8 8 9 9 8 8 8 8 8
11 11 10 10 9 9 9 9 8 8 7 6 5 5 5 5 4 4 4 4 4 3 3 3 3 3 3 3 3 3 3 3 4 4 4 3 3 3 3 3 3 3 3 5 8 10 11 12 11 9 7 5 5 5 5 5 6 7 7 7 7 8 8 8 8 8 8 7 8
11 11 10 10 10 9 9 8 8 7 7 6 6 5 5 4 4 4 4 4 3 3 3 3 3 4 4 3 4 4 4 3 4 4 4 4 3 4 4 3 3 3 4 7 9 10 11 12 13 13 11 8 6 5 5 5 6 6 6 6 6 7 7 7 8 8 8 8 8
11 11 10 10 10 9 9 8 7 7 7 6 6 5 5 5 4 4 4 3 3 3 3 3 3 3 3 3 3 4 4 4 4 3 3 3 4 4 4 4 4 4 6 8 10 11 12 13 13 14 13 11 7 5 5 5 5 5 5 5 5 6 6 6 7 7 8 9 9
12 11 11 10 10 9 8 8 8 7 7 6 6 5 5 5 4 4 4 3 3 3 3 2 3 2 2 3 3 3 4 4 3 3 3 3 4 5 5 5 5 6 7 10 11 12 12 13 14 14 14 13 9 5 4 4 4 4 4 4 4 5 5 6 6 7 8 9 9
12 11 11 11 10 9 9 8 8 7 6 5 5 5 5 5 4 4 4 4 4 3 3 2 3 3 3 3 3 3 3 3 3 3 3 4 5 5 6 6 5 6 7 10 11 12 13 13 14 14 14 14 11 7 4 4 4 4 4 4 4 5 6 6 7 8 8 9 9
11 11 11 11 10 9 9 8 7 6 5 5 5 5 5 5 5 5 4 4 3 3 3 3 3 3 3 3 3 3 3 3 3 4 4 5 6 6 6 6 6 6 8 10 11 12 13 14 14 14 14 15 12 8 4 3 3 4 4 4 5 6 6 7 7 8 9 10 10
11 11 11 10 10 9 8 7 6 6 6 6 6 6 5 5 4 4 3 3 3 3 3 3 3 3 3 3 3 3 4 4 4 5 5 6 6 6 6 6 6 7 8 10 12 13 13 14 14 14 15 15 12 8 5 3 3 4 4 5 6 7 7 7 7 9 10 10 10
10 10 10 10 10 9 8 7 6 6 6 6 6 5 5 5 3 3 3 3 3 3 4 4 4 4 4 4 4 4 5 5 5 6 6 6 6 6 6 6 6 7 8 11 12 13 13 14 14 15 15 15 12 8 5 3 3 4 5 6 6 7 8 9 9 9 10 10 10
10 10 10 10 9 8 7 6 6 6 6 5 5 5 5 4 4 3 3 3 3 3 3 4 4 4 4 4 4 4 5 5 5 6 6 6 5 5 6 6 5 6 9 11 12 13 14 14 15 15 15 15 11 7 4 4 4 5 6 7 7 8 8 9 9 9 10 10 10
11 11 10 9 9 8 7 7 6 6 6 5 5 5 5 4 4 4 4 4 3 3 2 2 3 3 3 3 4 5 5 6 6 5 5 5 5 5 6 7 6 8 10 12 13 13 14 14 15 15 15 13 8 5 4 4 5 6 7 8 8 9 9 9 9 9 9 9 9
11 11 11 10 9 8 7 7 6 6 6 6 6 6 5 5 4 4 4 4 3 3 2 2 2 3 3 4 4 5 6 6 6 6 5 5 5 6 7 8 8 9 10 12 13 13 14 14 15 15 14 11 7 5 4 5 5 7 8 9 9 10 10 9 9 9 8 8 9
11 11 11 10 9 8 8 7 7 7 6 7 6 6 6 5 4 3 3 4 3 3 3 3 3 4 5 5 5 5 6 6 6 6 6 6 6 6 7 8 8 9 10 12 13 13 14 15 15 15 13 9 6 5 5 5 5 6 7 8 9 9 9 9 8 8 8 8 8
10 10 10 10 9 8 8 7 7 7 7 7 6 6 5 5 4 4 4 5 4 4 4 4 4 5 6 6 5 5 5 5 5 6 6 6 6 7 7 8 8 9 9 11 12 14 14 15 15 15 13 9 7 5 5 5 6 7 7 8 8 8 8 7 7 7 7 8 10
10 9 9 9 9 9 8 8 8 8 8 7 6 5 4 4 4 4 4 5 4 4 4 4 5 5 5 5 5 5 5 5 5 6 6 7 7 7 8 8 9 9 9 11 13 14 15 15 16 15 14 10 7 6 5 6 7 7 8 7 7 7 7 7 6 6 7 8 12
9 9 9 9 9 9 9 8 8 8 7 6 6 5 5 4 4 4 4 4 4 4 4 5 5 5 5 4 4 5 5 5 5 6 7 7 8 8 9 9 9 9 10 12 13 14 15 16 16 16 14 10 7 6 5 6 7 7 8 7 7 7 7 7 6 7 7 8 11
8 8 8 8 8 9 9 9 8 7 6 6 6 5 5 4 3 3 4 4 4 4 4 4 5 5 4 4 4 5 5 6 6 7 7 7 8 9 9 9 9 9 10 11 13 14 16 16 16 16 14 10 7 6 5 5 6 7 8 8 7 7 7 8 7 7 8 8 8
Wind_Direction
152 155 158 159 155 150 144 142 143 144 146 147 147 148 145 139 136 137 139 136 134 135 137 137 136 136 137 141 135 126 120 115 109 103 99 99 105 117 132 143 149 157 163 165 169 165 165 168 179 199 218 236 251 259 259 247 234 231 237 247 256 259 262 267 275 277 275 273 271
154 154 154 153 147 141 135 134 136 139 141 143 143 143 142 138 137 138 139 139 137 137 137 136 135 131 130 132 126 119 114 110 106 101 98 102 118 135 146 154 163 173 180 174 180 180 172 169 179 201 223 234 248 254 252 240 236 248 258 260 264 264 265 270 276 278 279 279 277
152 151 150 149 145 142 139 138 139 140 139 138 136 136 136 134 134 135 137 139 139 137 135 133 131 127 125 124 116 109 108 111 114 114 116 125 145 159 164 162 174 191 196 188 191 186 180 173 197 215 236 240 249 257 257 242 241 254 266 269 269 268 269 274 280 281 281 280 276
151 151 151 151 149 147 145 143 142 141 139 135 132 130 129 129 130 132 135 139 139 137 133 129 127 124 122 121 115 109 108 116 125 129 134 147 161 171 173 170 184 193 197 195 195 191 187 180 195 222 238 245 252 258 259 251 247 254 264 268 269 271 274 280 284 283 280 280 276
155 156 156 154 151 148 144 142 141 141 138 135 132 130 128 128 131 135 138 140 138 134 130 126 124 122 119 116 116 116 117 126 138 140 143 160 170 176 180 183 193 195 195 195 195 192 187 184 196 219 230 238 246 253 256 256 255 258 261 265 267 271 276 282 282 279 277 278 276
158 156 154 151 147 142 138 138 139 138 138 137 136 136 137 140 143 144 143 139 135 130 125 124 122 121 118 115 119 123 130 140 150 151 154 166 172 178 183 190 194 195 195 192 193 189 187 185 201 217 225 231 242 245 245 241 249 259 268 272 270 270 271 275 276 277 277 277 279
155 153 150 148 143 139 135 135 135 135 136 137 139 142 145 149 148 144 140 134 130 129 128 127 128 129 129 129 132 137 143 150 158 165 170 173 174 180 185 187 189 193 193 190 187 186 185 190 203 223 233 239 245 240 231 220 235 258 273 280 280 277 274 274 275 277 278 278 279
149 148 148 147 142 138 136 136 137 137 138 141 145 147 148 148 144 140 134 129 131 135 137 135 138 140 141 141 143 147 151 155 162 169 175 174 176 181 187 187 186 189 189 190 186 183 186 197 215 232 241 248 255 247 231 211 231 256 273 282 284 283 281 281 279 278 278 279 279
143 143 143 142 139 137 137 138 140 141 143 144 146 148 147 145 141 137 134 134 138 140 140 139 143 143 143 144 146 150 155 159 163 166 171 174 176 180 185 187 187 184 181 181 186 187 187 198 219 233 241 247 258 258 248 223 244 262 274 282 286 286 285 283 280 278 276 276 276
145 143 142 140 138 136 136 137 140 141 141 142 144 146 144 142 139 137 137 138 138 139 141 145 145 145 146 148 151 155 159 161 161 163 168 173 175 177 183 190 195 190 182 177 183 187 192 206 229 241 246 249 257 261 259 247 258 268 276 282 289 291 290 286 281 277 274 274 274
147 147 145 143 140 137 135 135 137 139 139 140 143 143 142 139 138 138 138 137 138 143 149 152 150 149 150 153 157 160 161 160 158 158 162 170 173 177 183 195 211 217 212 188 186 191 203 219 242 251 255 255 256 260 262 259 265 272 278 283 287 289 289 287 284 280 276 274 274
148 147 146 142 140 138 137 137 139 140 141 141 143 142 141 140 141 141 140 139 142 147 152 155 153 152 151 152 158 159 158 156 156 156 159 164 170 178 188 201 214 226 227 208 198 202 217 228 243 256 264 265 266 267 268 267 273 278 281 284 285 285 285 285 284 282 280 278 277
147 145 144 142 141 140 139 139 141 142 143 144 144 144 143 143 145 145 144 144 144 146 150 156 156 154 152 152 155 156 155 154 155 156 157 161 171 181 194 206 215 224 226 217 204 210 223 232 240 254 266 274 276 276 274 271 275 279 283 285 285 283 282 282 282 282 281 280 277
146 146 145 145 144 143 141 141 143 145 146 146 147 146 146 147 151 151 148 146 144 144 146 152 158 158 155 152 153 153 153 152 152 154 159 167 174 186 200 215 217 223 225 221 210 215 225 237 241 251 262 273 277 279 277 272 272 275 277 281 281 281 280 280 280 281 280 278 276
148 148 148 147 147 146 145 145 146 147 148 148 150 149 148 150 155 154 148 142 141 142 144 148 154 155 153 150 149 149 149 148 151 157 166 177 184 195 208 221 223 225 227 228 223 224 229 238 243 249 258 267 274 278 278 274 272 271 271 272 274 275 276 277 278 278 277 275 276
151 151 151 151 150 149 148 148 148 149 149 150 151 150 149 151 155 153 147 141 139 139 141 146 150 151 153 155 151 148 147 148 154 162 174 186 195 204 214 225 229 230 230 235 240 240 239 240 244 248 254 263 270 275 277 276 274 271 269 268 268 269 271 273 274 273 272 271 272
154 155 155 155 154 153 152 151 150 150 150 150 151 151 151 150 152 152 149 144 141 139 141 147 149 151 154 160 157 154 152 154 163 172 184 195 203 212 220 230 232 230 231 237 250 256 256 251 248 247 251 258 265 270 273 275 274 272 270 268 266 266 267 268 269 270 270 270 270
158 159 159 158 157 155 154 153 151 150 150 150 150 151 150 149 150 150 149 145 142 141 143 148 151 154 155 159 164 167 167 168 178 187 193 200 206 216 226 235 234 230 229 236 250 259 264 265 260 256 254 256 261 265 268 270 271 270 270 269 267 266 266 265 265 266 266 267 267
161 162 162 161 159 157 155 153 152 151 149 149 148 148 148 149 149 147 146 147 146 144 144 148 153 156 158 158 166 174 181 182 190 196 202 203 208 217 227 236 234 230 229 235 247 256 263 267 266 264 262 262 264 265 266 266 267 267 267 267 267 266 265 264 263 262 262 262 265
163 164 164 163 159 157 155 153 151 149 147 145 144 144 146 149 147 147 148 155 156 150 145 149 154 158 161 160 167 179 190 192 196 203 206 206 210 219 226 232 233 232 232 236 245 253 259 264 265 264 264 264 266 267 267 266 266 265 265 265 264 263 263 262 262 261 261 261 263
165 165 164 161 157 155 152 150 147 145 143 143 143 144 146 148 149 150 153 157 156 153 152 156 161 164 167 168 176 185 194 197 200 205 210 210 215 220 223 224 230 234 237 239 246 251 256 260 262 263 263 263 265 265 266 267 267 266 264 264 263 262 261 262 262 262 262 262 262
164 163 160 157 154 151 148 145 142 142 142 143 143 143 144 146 149 151 151 151 154 159 164 169 171 173 176 178 183 187 190 194 200 207 213 217 222 223 222 218 224 235 244 247 248 250 254 258 259 259 259 260 260 261 262 264 265 266 265 264 264 264 263 263 263 263 262 262 262
161 158 155 152 149 145 142 140 140 142 143 145 144 144 144 147 147 146 147 152 161 169 174 177 180 182 184 186 187 187 188 194 203 211 215 219 227 226 220 212 220 234 244 249 247 247 251 256 255 253 251 250 252 255 257 258 259 261 264 265 266 266 266 265 264 263 263 262 262
156 153 150 147 143 142 141 142 144 146 149 150 149 147 146 146 145 147 152 162 171 177 180 182 183 184 186 189 190 191 194 201 210 215 217 216 218 218 215 211 220 232 241 246 244 245 247 251 247 243 241 239 243 248 251 250 252 255 259 264 267 269 270 269 266 265 264 264 264
152 149 146 144 143 144 145 147 151 154 155 155 151 148 147 148 151 155 162 170 177 182 183 184 182 182 184 188 192 195 199 206 213 219 223 221 216 211 211 218 227 233 240 247 255 261 267 273 268 256 242 236 240 243 244 243 245 250 255 261 266 271 274 276 273 270 267 266 265
149 147 147 147 147 149 151 156 157 157 156 152 149 149 152 155 157 161 165 172 177 179 179 180 184 186 188 186 189 194 200 207 211 218 225 233 234 230 228 230 236 238 243 250 263 272 279 285 287 286 279 262 254 250 249 247 247 249 253 257 263 269 274 279 280 278 274 271 269
150 150 150 150 151 154 158 160 158 156 154 152 154 158 160 160 160 164 168 171 171 171 173 178 188 191 189 183 187 194 200 206 208 212 218 228 240 247 249 248 245 243 247 256 268 277 285 290 292 294 293 288 276 264 258 259 257 254 254 256 259 263 268 274 279 282 282 282 278
154 153 152 152 155 158 160 158 157 158 160 162 163 162 160 158 161 166 169 170 166 167 175 182 187 186 185 183 192 197 201 203 204 207 213 221 234 244 250 254 252 252 256 264 275 283 290 293 294 294 294 293 284 270 259 260 261 259 257 256 258 260 262 266 273 279 283 285 284
155 154 154 156 159 160 160 160 165 167 167 164 161 156 154 157 164 168 171 172 176 181 184 181 178 175 180 192 197 200 201 205 204 205 210 220 234 242 247 251 253 257 263 271 281 287 291 293 293 293 293 293 290 280 264 258 261 262 260 258 259 260 263 265 272 277 282 285 286
156 156 157 161 162 163 166 171 172 169 163 157 154 153 154 160 168 174 180 184 190 191 184 165 165 173 184 193 193 198 204 208 202 202 210 222 235 242 246 248 250 257 265 273 282 287 290 291 291 292 292 293 292 288 275 263 261 261 262 262 260 261 264 268 272 276 280 283 285
157 158 160 162 164 168 172 175 170 163 156 152 153 157 161 168 178 184 187 188 188 181 167 154 164 178 188 191 193 203 212 214 208 209 214 224 236 243 249 251 252 258 266 273 280 284 287 289 290 291 292 294 293 289 277 263 257 257 259 262 262 264 266 270 273 275 277 280 282
159 160 162 164 168 171 173 170 164 158 155 154 158 163 169 176 181 184 184 181 171 163 160 161 174 187 198 201 206 212 218 220 219 218 219 223 233 242 249 253 253 257 264 271 277 282 286 288 290 292 293 294 293 289 279 263 257 256 258 261 263 265 267 271 274 276 276 277 278
160 162 164 168 171 172 170 165 161 158 156 158 164 169 174 177 176 176 178 178 171 169 171 177 186 196 205 208 212 217 220 222 223 224 226 227 231 239 248 255 255 258 263 270 277 282 286 289 291 292 293 293 292 289 281 264 261 262 264 266 267 267 267 269 271 273 274 274 274
163 165 168 171 172 170 167 163 159 156 156 161 169 175 178 177 178 182 184 185 178 175 177 182 189 196 201 202 207 215 221 225 225 225 226 226 229 237 246 253 255 258 264 271 278 283 287 289 291 291 292 292 291 288 280 267 268 268 270 271 271 270 269 268 267 268 268 269 270
167 168 171 173 171 168 164 161 157 156 159 167 176 182 184 185 188 189 187 180 171 168 171 179 183 189 198 205 211 218 225 232 230 228 225 222 225 236 247 253 256 260 264 271 278 283 286 288 289 290 291 291 290 285 275 269 270 270 271 272 272 271 270 268 267 265 264 264 265
171 171 172 173 170 166 163 160 158 161 167 177 182 187 191 194 195 191 182 169 161 162 169 177 181 194 205 214 217 222 225 229 232 231 227 221 225 236 248 256 259 262 266 271 277 282 285 287 288 289 290 290 286 278 270 267 269 270 270 271 271 271 270 268 267 264 262 259 260
175 174 172 171 169 167 164 161 161 168 177 187 189 191 192 193 193 188 176 164 161 170 182 184 192 204 212 216 220 223 223 224 228 233 234 230 230 238 248 258 262 264 267 272 276 280 283 285 286 287 288 287 280 273 268 267 268 269 270 270 269 268 267 267 265 262 258 254 257
178 175 172 169 169 168 166 165 170 178 186 192 193 192 190 188 185 183 178 171 171 180 189 194 203 211 215 216 221 225 225 223 224 230 236 238 235 239 247 258 263 265 267 270 274 278 280 282 284 285 286 283 277 271 268 268 269 269 270 270 270 267 264 262 263 262 258 254 262
178 176 172 169 169 168 169 173 180 186 190 191 191 189 187 186 184 183 181 177 175 181 188 198 207 212 214 212 220 227 229 226 224 229 235 240 241 243 247 255 261 264 265 268 272 275 278 280 282 283 283 281 276 270 268 269 270 270 270 271 271 268 264 261 263 265 265 261 268
176 174 172 170 170 170 173 181 188 192 192 189 189 189 189 189 185 179 176 176 178 183 190 202 210 213 212 212 220 230 236 236 230 231 235 241 246 249 252 255 259 262 264 266 270 273 276 278 280 280 280 278 271 265 264 265 268 270 270 271 271 272 273 272 273 275 275 272 273
172 172 173 173 172 174 178 185 191 194 193 191 192 191 187 180 172 169 171 178 186 191 198 208 214 216 216 218 224 234 242 249 244 239 238 242 248 252 255 256 258 260 262 265 268 271 273 275 277 277 277 274 267 260 257 259 265 268 270 271 272 277 281 285 284 283 281 279 276